[[{"header":{"parameterUnit":"m.s-1","parameterCategory":1,"la1":30.2991,"la2":30.254,"lo1":-89.0895,"lo2":-89.0444,"dy":0.0017,"dx":0.0017,"nx":28,"ny":28,"refTime":"2025-07-18T21:00:00:Z","depth":0,"parameterNumber":2,"parameterNumberName":"U-component_of_WINDS"},"data":[0,0,0,0,0,0,0,0,0,0,0,0,0,0,0,0,0,0,0,0,0,0,0,0,0,0,0,0,0,0,0,0,0,0,0,0,0,0,0,0,0,0,0,0,0,0,0,0,0,0,0,0,0,0,0,0,0,0,1.6503,1.6504,0,1.6577,1.6578,1.6579,1.6557,1.6555,1.6554,1.6552,1.6631,1.6634,1.6638,0,0,0,0,0,0,0,0,0,0,0,0,0,1.6341,1.6344,1.6503,1.6504,1.6505,1.6577,1.6578,1.6579,1.6557,1.6555,1.6553,1.6552,1.663,1.6634,1.6638,0,0,0,0,0,0,0,0,0,0,0,0,0,1.6413,1.6345,1.6502,1.6502,1.6503,1.6577,1.6578,1.6579,1.6558,1.6555,1.6553,1.6551,1.6628,1.6633,1.6639,1.6718,0,0,1.6655,1.6657,0,0,0,0,0,0,0,0,1.6409,1.6419,1.6501,1.6502,1.6503,1.6555,1.655,1.6626,1.6558,1.6537,1.6552,1.655,1.6608,1.6614,1.6634,1.6722,1.6725,1.6655,1.6658,1.6661,1.6662,0,0,0,0,0,0,0,1.6404,1.6416,1.6532,1.6503,1.6504,1.6498,1.6506,1.6564,1.6585,1.6539,1.6537,1.6546,1.6608,1.6629,1.6635,1.6726,1.6655,1.666,1.6663,1.6665,1.688,1.6882,0,0,0,0,0,0,1.6398,1.6412,1.653,1.6534,1.6449,1.6503,1.6512,1.6541,1.6584,1.6588,1.6548,1.6545,1.6621,1.6629,1.6638,1.6732,1.6661,1.6666,1.6669,1.6877,1.688,1.6883,0,0,0,0,0,0,1.6395,1.6409,1.6527,1.6473,1.6487,1.6508,1.6542,1.6544,1.6564,1.6591,1.6595,1.6566,1.6619,1.6631,1.6697,1.6734,1.6668,1.6673,1.6874,1.6878,1.6882,1.6921,0,0,0,0,0,0,1.639,1.6408,1.6439,1.6474,1.649,1.6585,1.6544,1.6547,1.6573,1.657,1.6608,1.6613,1.6618,1.669,1.6703,1.674,1.6677,1.6871,1.6876,1.6881,1.6916,1.6925,1.6933,0,0,0,0,0,1.6385,1.6448,1.644,1.6455,1.6529,1.6587,1.6597,1.6602,1.6577,1.6607,1.6624,1.6611,1.6728,1.6697,1.6711,1.6751,1.6869,1.6875,1.688,1.6912,1.6923,1.6933,0,0,0,0,0,0,1.6418,1.6452,1.6444,1.6521,1.6551,1.6583,1.6622,1.6614,1.6652,1.6648,1.6652,1.6661,1.6729,1.6747,1.6711,1.6828,1.6795,1.6804,1.6814,1.6825,1.6833,1.6827,1.6681,0,0,0,0,0,1.6434,1.6478,1.6506,1.6571,1.6586,1.6602,1.6627,1.6628,1.666,1.6673,1.6695,1.6726,1.677,1.6799,1.684,1.6919,1.6926,1.6953,1.6961,1.6968,1.6976,1.7016,1.7028,1.6902,1.6902,1.6902,0,0,1.6468,1.6492,1.652,1.6578,1.6601,1.6646,1.6613,1.6663,1.6696,1.6681,1.6744,1.6761,1.6797,1.6869,1.6902,1.6886,1.7012,1.6975,1.6981,1.6984,1.7023,1.7035,1.7045,1.6906,1.6905,1.6904,0,0,1.6552,1.6576,1.6631,1.6654,1.669,1.6699,1.6712,1.6746,1.6756,1.6819,1.6808,1.6848,1.6924,1.6949,1.6971,1.7062,1.7052,1.7076,1.712,1.7159,1.7169,1.7178,1.7208,1.7219,1.7083,1.7083,1.7083,0,1.659,1.6657,1.666,1.671,1.6735,1.6722,1.6777,1.68,1.6848,1.6865,1.6846,1.6939,1.6962,1.7039,1.706,1.708,1.7094,1.7071,1.7167,1.7176,1.7184,1.7213,1.7225,1.7086,1.7086,1.7085,1.7085,0,1.6701,1.6748,1.6788,1.6832,1.6862,1.6915,1.6925,1.6954,1.6952,1.6963,1.7027,1.7054,1.71,1.7118,1.7118,1.7194,1.7183,1.7166,1.7132,1.7199,1.7226,1.7237,1.709,1.7089,1.7088,1.7087,0,0,1.681,1.6853,1.6867,1.6886,1.6923,1.6959,1.7011,1.7054,1.7078,1.7112,1.7154,1.7217,1.72,1.7226,1.7227,1.7262,1.7329,1.724,1.7241,1.7254,1.7413,1.7425,1.7438,1.7323,1.7325,1.7327,1.7409,0,1.6896,1.6985,1.6987,1.7069,1.7111,1.7097,1.7142,1.7169,1.718,1.7218,1.7231,1.7274,1.725,1.7265,1.7299,1.7314,1.7361,1.7308,1.7361,1.7363,1.7351,1.7452,1.7465,1.7542,1.742,1.7422,1.7424,0,1.7008,1.7042,1.7127,1.7156,1.7174,1.7213,1.7252,1.7288,1.7318,1.7324,1.7351,1.7347,1.7398,1.7363,1.7433,1.7397,1.7419,1.7429,1.7432,1.7437,1.7397,1.7458,1.7567,1.7578,1.7441,1.744,1.7438,0,1.7076,1.7144,1.7203,1.7219,1.7255,1.7282,1.7298,1.7326,1.7351,1.7385,1.7401,1.7441,1.7463,1.7494,1.75,1.7474,1.757,1.7536,1.7575,1.7575,1.7596,1.7594,1.7708,1.7612,1.7612,1.7611,1.7611,0,1.7171,1.7223,1.7233,1.7269,1.7327,1.7329,1.7386,1.74,1.7424,1.7462,1.7454,1.749,1.7497,1.7534,1.754,1.7595,1.7606,1.7611,1.7612,1.7611,1.7611,1.7625,1.7619,1.7615,1.7614,1.7613,1.7613,0,1.7257,1.7266,1.7328,1.7356,1.7364,1.7405,1.7428,1.7462,1.7472,1.752,1.7531,1.7547,1.759,1.7599,1.7652,1.7655,1.7721,1.7717,1.771,1.7709,1.7748,1.7743,1.7875,1.7891,1.7785,1.7786,1.7787,0,1.7316,1.7355,1.7386,1.741,1.7427,1.7467,1.7492,1.7495,1.7521,1.7557,1.7586,1.7628,1.7662,1.7732,1.7748,1.7787,1.7783,1.7826,1.7789,1.7786,1.7781,1.7778,1.7782,1.7833,1.7834,1.7835,1.7836,0,1.742,1.7422,1.7457,1.7494,1.7523,1.7553,1.7581,1.7601,1.7608,1.7638,1.7681,1.7707,1.7759,1.78,1.7839,1.7855,1.7847,1.7847,1.7858,1.7858,1.7851,1.7853,1.7728,1.7844,1.7844,1.7843,1.7842,1.7842,1.7493,1.7526,1.7552,1.7592,1.7612,1.7638,1.7671,1.7683,1.7719,1.7761,1.7761,1.7807,1.7834,1.7885,1.7904,1.794,1.7927,1.7943,1.7947,1.7951,1.7953,1.7846,1.7948,1.7947,1.7947,1.7947,1.7947,0,1.7595,1.761,1.7646,1.7684,1.7715,1.7703,1.7733,1.7759,1.78,1.7825,1.7858,1.7906,1.7946,1.7964,1.8003,1.8028,1.8025,1.8038,1.8036,1.8039,1.7964,1.795,1.804,1.804,1.804,1.804,1.804,1.804,1.7651,1.7706,1.771,1.7775,1.779,1.7835,1.7852,1.7875,1.7895,1.795,1.7982,1.7993,1.8015,1.8055,1.809,1.8095,1.8109,1.8123,1.8126,1.8055,1.8045,1.8036,1.8023,1.8127,1.8127,1.8198,1.8199,1.8199]},{"header":{"parameterUnit":"m.s-1","parameterCategory":1,"la1":30.2991,"la2":30.254,"lo1":-89.0895,"lo2":-89.0444,"dy":0.0017,"dx":0.0017,"nx":28,"ny":28,"refTime":"2025-07-18T21:00:00:Z","depth":0,"parameterNumber":3,"parameterNumberName":"V-component_of_WINDS"},"data":[0,0,0,0,0,0,0,0,0,0,0,0,0,0,0,0,0,0,0,0,0,0,0,0,0,0,0,0,0,0,0,0,0,0,0,0,0,0,0,0,0,0,0,0,0,0,0,0,0,0,0,0,0,0,0,0,0,0,5.1029,5.1029,0,5.109,5.109,5.1091,5.1046,5.1044,5.1042,5.104,5.1095,5.1098,5.1101,0,0,0,0,0,0,0,0,0,0,0,0,0,5.0863,5.0867,5.1028,5.1029,5.103,5.109,5.109,5.1091,5.1046,5.1043,5.1041,5.1039,5.1094,5.1098,5.1102,0,0,0,0,0,0,0,0,0,0,0,0,0,5.0931,5.0868,5.1028,5.1015,5.1014,5.1089,5.109,5.1091,5.1046,5.1043,5.104,5.1038,5.1093,5.1097,5.1102,5.1192,0,0,5.1117,5.1119,0,0,0,0,0,0,0,0,5.0927,5.0937,5.1016,5.1016,5.1015,5.1057,5.1052,5.1125,5.1047,5.1034,5.104,5.1036,5.1084,5.109,5.1107,5.1194,5.1197,5.1118,5.1121,5.1123,5.1124,0,0,0,0,0,0,0,5.0922,5.0934,5.1052,5.1017,5.1017,5.1003,5.1009,5.1066,5.1075,5.1035,5.1032,5.104,5.1083,5.1103,5.1108,5.1198,5.1118,5.1122,5.1125,5.1127,5.1358,5.1361,0,0,0,0,0,0,5.092,5.093,5.105,5.1054,5.0963,5.1008,5.1015,5.1047,5.1074,5.1075,5.1042,5.1038,5.1096,5.1103,5.111,5.1215,5.1123,5.1128,5.113,5.1355,5.1359,5.1362,0,0,0,0,0,0,5.0917,5.0931,5.1048,5.0992,5.1005,5.1014,5.105,5.1049,5.1069,5.108,5.108,5.1061,5.1094,5.1103,5.1172,5.1216,5.113,5.1134,5.1351,5.1356,5.1361,5.1426,0,0,0,0,0,0,5.0912,5.093,5.0967,5.0993,5.1009,5.1111,5.1053,5.1053,5.1078,5.1073,5.1097,5.1099,5.1092,5.1165,5.1177,5.1221,5.1138,5.1347,5.1353,5.1359,5.142,5.1433,5.1443,0,0,0,0,0,5.0907,5.0982,5.0969,5.0984,5.1055,5.1114,5.1123,5.1116,5.1082,5.1117,5.1124,5.1098,5.121,5.1172,5.1185,5.1232,5.1344,5.1352,5.1359,5.1415,5.143,5.1443,0,0,0,0,0,0,5.0958,5.0985,5.0971,5.1057,5.1084,5.1106,5.115,5.1133,5.1168,5.116,5.1148,5.1154,5.1226,5.1236,5.1193,5.1319,5.1271,5.1281,5.1309,5.1324,5.1335,5.133,5.1142,0,0,0,0,0,5.098,5.1029,5.1049,5.1123,5.1137,5.1142,5.1167,5.116,5.1186,5.1196,5.1208,5.1232,5.1272,5.1299,5.1337,5.1422,5.1425,5.146,5.1472,5.1481,5.1489,5.1532,5.1548,5.1386,5.1386,5.1385,0,0,5.1025,5.1045,5.1077,5.1134,5.1153,5.1201,5.1151,5.1204,5.1239,5.1203,5.1269,5.1279,5.1304,5.1381,5.1415,5.1392,5.1535,5.149,5.1498,5.1501,5.1541,5.1557,5.157,5.139,5.139,5.1389,0,0,5.113,5.1153,5.1216,5.1237,5.1268,5.1271,5.1286,5.1311,5.1316,5.1383,5.1357,5.1396,5.1466,5.1485,5.1504,5.1616,5.1592,5.1628,5.1688,5.173,5.1743,5.1754,5.1792,5.1805,5.1637,5.1637,5.1637,0,5.1181,5.1255,5.1249,5.1305,5.1329,5.1302,5.1363,5.1383,5.1424,5.144,5.1414,5.1501,5.1517,5.1596,5.1623,5.1641,5.1655,5.1625,5.1742,5.1753,5.1764,5.1799,5.1813,5.1641,5.1641,5.164,5.164,0,5.1314,5.1366,5.1412,5.1455,5.1485,5.1543,5.1543,5.1574,5.1563,5.1568,5.1634,5.1652,5.1692,5.171,5.17,5.1788,5.1772,5.1745,5.1696,5.1783,5.1816,5.183,5.1647,5.1645,5.1644,5.1643,0,0,5.1453,5.1493,5.1509,5.1527,5.156,5.1598,5.1653,5.1695,5.172,5.1749,5.1793,5.1853,5.1827,5.1849,5.184,5.1878,5.1962,5.1845,5.1845,5.1864,5.2056,5.2075,5.2091,5.1948,5.195,5.1952,5.2053,0,5.1558,5.1658,5.1654,5.1746,5.1791,5.1766,5.1814,5.1837,5.1842,5.1879,5.1884,5.1926,5.1891,5.1903,5.1939,5.1944,5.2,5.1937,5.1985,5.1987,5.1977,5.2109,5.2129,5.2224,5.2066,5.2069,5.207,0,5.1695,5.173,5.1827,5.1851,5.187,5.1914,5.195,5.1987,5.2012,5.2013,5.2037,5.2022,5.2075,5.2027,5.2098,5.2056,5.2075,5.2081,5.2084,5.2086,5.2032,5.2112,5.2254,5.2267,5.2091,5.2089,5.2088,0,5.1783,5.1855,5.1922,5.1938,5.1969,5.1999,5.2013,5.2035,5.206,5.2091,5.2106,5.2143,5.2162,5.2189,5.2183,5.215,5.2255,5.2207,5.2255,5.2255,5.2276,5.2274,5.2421,5.2293,5.2293,5.2293,5.2292,0,5.1899,5.1959,5.1961,5.2002,5.2067,5.2061,5.2124,5.2134,5.2154,5.2194,5.2174,5.2211,5.2203,5.2239,5.2235,5.2293,5.2302,5.2302,5.23,5.2303,5.2302,5.2313,5.2306,5.2296,5.2295,5.2295,5.2294,0,5.2008,5.2013,5.2083,5.2107,5.2114,5.216,5.2179,5.2216,5.222,5.227,5.2282,5.2287,5.2329,5.2327,5.2373,5.237,5.2441,5.2432,5.2433,5.243,5.2477,5.2472,5.2633,5.2653,5.2515,5.2516,5.2518,0,5.2081,5.2126,5.2155,5.2181,5.2197,5.224,5.2266,5.2261,5.2287,5.2319,5.2351,5.2392,5.2423,5.249,5.2497,5.2532,5.2522,5.2576,5.2527,5.2527,5.2519,5.2516,5.2519,5.2585,5.2586,5.2588,5.2589,0,5.2208,5.2208,5.2247,5.2287,5.2318,5.2348,5.2375,5.2397,5.2395,5.2426,5.2469,5.2494,5.2542,5.2581,5.2615,5.2625,5.2606,5.2605,5.2617,5.2619,5.2617,5.2616,5.2457,5.26,5.2599,5.2598,5.2598,5.2597,5.2299,5.2338,5.2364,5.2407,5.2428,5.2454,5.2489,5.2498,5.2535,5.2575,5.257,5.2618,5.2639,5.2682,5.2697,5.2732,5.2712,5.2731,5.2735,5.2739,5.2743,5.2614,5.2738,5.2738,5.2738,5.2737,5.2737,0,5.2423,5.2439,5.2479,5.2519,5.2553,5.2535,5.2564,5.2592,5.2635,5.2658,5.269,5.2739,5.2777,5.2786,5.2822,5.2848,5.284,5.2857,5.2854,5.2856,5.276,5.2745,5.2863,5.2863,5.2863,5.2863,5.2863,5.2863,5.2492,5.2555,5.2558,5.263,5.2645,5.2693,5.2711,5.2734,5.2752,5.2809,5.2841,5.2848,5.2864,5.2901,5.2934,5.2935,5.2948,5.2969,5.2967,5.2876,5.2863,5.2851,5.2836,5.2972,5.2973,5.3059,5.306,5.3061]}]]